WA2GUG Weather Reports


time (UTC)temp
F
wind
direction
speed
knots
gust
knots
rain 1hr
in
rain 24hr
in
rain mn
in
humidity
%
barometer
mb
20260831085157 61 178 0.0 0.0 0.00 0.00 0.00 99 1013.0
20260831084657 61 202 0.0 0.0 0.00 0.00 0.00 99 1013.0
20260831084157 61 202 0.0 0.0 0.00 0.00 0.00 99 1013.0
20260831083657 61 202 0.0 0.0 0.00 0.00 0.00 99 1013.0
20260831083157 61 187 0.0 0.0 0.00 0.00 0.00 99 1013.0
20260831082657 61 139 0.0 0.0 0.00 0.00 0.00 99 1013.0
20260831082157 61 132 0.0 0.0 0.00 0.00 0.00 99 1013.0
20260831081657 61 130 0.0 0.0 0.00 0.00 0.00 99 1013.0
20260831081157 61 33 0.0 0.0 0.00 0.00 0.00 99 1013.0
20260831080657 61 43 0.0 0.0 0.00 0.00 0.00 99 1013.0
20260831080157 62 75 0.0 0.0 0.00 0.00 0.00 99 1013.0
20260831075657 62 62 0.0 0.0 0.00 0.00 0.00 99 1013.0
20260831075157 62 135 0.0 0.0 0.00 0.00 0.00 99 1013.0
20260831074657 62 135 0.0 0.0 0.00 0.00 0.00 99 1013.0
20260831074157 62 135 0.0 0.0 0.00 0.00 0.00 99 1013.0
20260831073657 62 135 0.0 0.0 0.00 0.00 0.00 99 1013.0
20260831073157 63 130 0.0 0.0 0.00 0.00 0.00 99 1013.0
20260831072657 63 129 0.0 0.0 0.00 0.00 0.00 99 1013.0
20260831072157 63 122 0.0 0.0 0.00 0.00 0.00 99 1013.0
20260831071657 64 115 0.0 0.0 0.00 0.00 0.00 99 1013.0
20260831071157 64 120 0.0 0.0 0.00 0.00 0.00 99 1013.0
20260831070657 64 135 0.0 0.0 0.00 0.00 0.00 99 1013.0
20260831070157 64 136 0.0 0.0 0.00 0.00 0.00 99 1013.0
20260831065657 64 270 0.0 0.0 0.00 0.00 0.00 99 1013.0
20260831065157 64 248 0.0 0.0 0.00 0.00 0.00 99 1013.0
20260831064657 64 247 0.0 0.0 0.00 0.00 0.00 99 1013.0
20260831064157 64 247 0.0 0.0 0.00 0.00 0.00 99 1013.0
20260831063657 64 247 0.0 0.0 0.00 0.00 0.00 99 1013.0
20260831063157 64 220 0.0 0.0 0.00 0.00 0.00 99 1013.0
20260831062657 64 180 0.0 0.0 0.00 0.00 0.00 99 1013.0
20260831062157 64 180 0.0 0.0 0.00 0.00 0.00 99 1013.0
20260831061657 64 195 0.0 0.0 0.00 0.00 0.00 99 1013.0
20260831061157 64 270 0.0 0.0 0.00 0.00 0.00 99 1013.0
20260831060657 64 270 0.0 0.0 0.00 0.00 0.00 99 1013.0
20260831060157 64 270 0.0 0.0 0.00 0.00 0.00 99 1013.0
20260831055657 64 247 0.0 0.0 0.00 0.00 0.00 99 1013.0
20260831055157 64 192 0.0 0.0 0.00 0.00 0.00 99 1013.0
20260831054657 64 319 0.0 0.0 0.00 0.00 0.00 99 1013.0
20260831054157 64 123 0.0 0.0 0.00 0.00 0.00 99 1013.0
20260831053657 64 116 0.0 0.0 0.00 0.00 0.00 99 1013.0
20260831053157 64 83 0.0 0.0 0.00 0.00 0.00 99 1013.0
20260831052657 64 250 0.0 0.0 0.00 0.00 0.00 99 1013.0
20260831052157 64 180 0.0 0.0 0.00 0.00 0.00 99 1013.0
20260831051657 64 87 0.0 2.6 0.00 0.00 0.00 99 1013.0
20260831051157 64 185 0.0 2.6 0.00 0.00 0.00 99 1013.0
20260831050657 64 130 0.0 2.6 0.00 0.00 0.00 99 1013.0
20260831050156 64 140 0.9 2.6 0.00 0.00 0.00 99 1013.0
20260831045656 64 133 0.9 2.6 0.00 0.00 0.00 99 1013.0
20260831045156 64 138 0.0 2.6 0.00 0.00 0.00 99 1013.0
20260831044656 64 139 0.0 2.6 0.00 0.00 0.00 99 1013.0
20260831044156 64 151 0.0 0.0 0.00 0.00 0.00 99 1013.0
20260831043656 64 163 0.0 1.7 0.00 0.00 0.00 99 1012.2
20260831043157 64 135 0.0 1.7 0.00 0.00 0.00 99 1013.0
20260831042656 64 183 0.0 0.0 0.00 0.00 0.00 99 1012.2
20260831042156 64 169 0.0 0.0 0.00 0.00 0.00 99 1013.0
20260831041657 64 148 0.0 0.0 0.00 0.00 0.00 99 1012.2
20260831041156 64 137 0.0 0.0 0.00 0.00 0.00 99 1013.0
20260831040656 64 132 0.0 0.0 0.00 0.00 0.00 99 1012.2
20260831040156 64 144 0.0 1.7 0.00 0.00 0.00 99 1013.0
20260831035656 64 136 0.0 1.7 0.00 0.00 0.00 99 1013.0
20260831035156 64 130 0.0 1.7 0.00 0.00 0.00 99 1013.0
20260831034656 65 89 0.0 1.7 0.00 0.00 0.00 99 1013.0
20260831034156 65 82 0.0 2.6 0.00 0.00 0.00 99 1013.0
20260831033656 65 92 0.9 2.6 0.00 0.00 0.00 99 1013.0
20260831033156 65 90 0.9 2.6 0.00 0.00 0.00 99 1013.0
20260831032656 65 98 0.0 3.5 0.00 0.00 0.00 99 1013.0
20260831032156 65 12 0.9 3.5 0.00 0.00 0.00 99 1013.0
20260831031657 65 52 0.0 2.6 0.00 0.00 0.00 99 1013.0
20260831031156 65 81 0.0 0.0 0.00 0.00 0.00 99 1013.0
20260831030656 65 54 0.0 0.0 0.00 0.00 0.00 99 1013.0
20260831030156 65 86 0.0 0.0 0.00 0.00 0.00 99 1013.0
20260831025656 66 94 0.0 0.0 0.00 0.00 0.00 99 1013.0
20260831025156 66 158 0.0 3.5 0.00 0.00 0.00 99 1013.0
20260831024656 66 160 0.9 3.5 0.00 0.00 0.00 99 1012.2
20260831024156 66 43 0.0 2.6 0.00 0.00 0.00 99 1013.0
20260831023656 66 83 0.0 2.6 0.00 0.00 0.00 99 1012.2
20260831023156 66 71 0.0 1.7 0.00 0.00 0.00 99 1013.0
20260831022656 67 47 0.0 2.6 0.00 0.00 0.00 99 1013.0
20260831022156 67 97 0.9 2.6 0.00 0.00 0.00 99 1013.0
20260831021656 67 46 0.0 0.0 0.00 0.00 0.00 99 1013.0
20260831021156 67 153 0.0 2.6 0.00 0.00 0.00 99 1013.0
20260831020656 67 95 0.0 2.6 0.00 0.00 0.00 99 1013.0
20260831020156 67 136 0.0 2.6 0.00 0.00 0.00 99 1013.0
20260831015656 67 112 0.0 1.7 0.00 0.00 0.00 99 1013.0
20260831015156 67 138 0.0 1.7 0.00 0.00 0.00 99 1013.0
20260831014656 67 168 0.0 0.9 0.00 0.00 0.00 99 1013.0
20260831014156 67 127 0.0 0.9 0.00 0.00 0.00 99 1013.0
20260831013656 67 10 0.0 3.5 0.00 0.00 0.00 99 1013.0
20260831013156 67 150 0.0 3.5 0.00 0.00 0.00 99 1013.0
20260831012656 67 49 0.0 0.0 0.00 0.00 0.00 99 1013.0
20260831012156 67 161 0.0 0.0 0.00 0.00 0.00 99 1013.0
20260831011656 67 76 0.0 0.9 0.00 0.00 0.00 99 1013.0
20260831011156 67 137 0.0 3.5 0.00 0.00 0.00 99 1013.0
20260831010656 67 117 0.0 3.5 0.00 0.00 0.00 99 1013.0
20260831010156 67 345 0.0 0.0 0.00 0.00 0.00 99 1013.0
20260831005656 67 16 0.0 0.0 0.00 0.00 0.00 99 1012.2
20260831005156 67 87 0.0 0.0 0.00 0.00 0.00 99 1013.0
20260831004656 67 137 0.0 0.0 0.00 0.00 0.00 99 1013.0
20260831004156 67 135 0.0 0.0 0.00 0.00 0.00 99 1013.0
20260831003656 67 119 0.0 0.0 0.00 0.00 0.00 99 1013.0
20260831003156 67 117 0.0 1.7 0.00 0.00 0.00 99 1013.0
20260831002656 67 94 0.0 1.7 0.00 0.00 0.00 99 1012.1
20260831002156 67 143 0.0 0.9 0.00 0.00 0.00 99 1012.0
20260831001656 67 128 0.0 0.0 0.00 0.00 0.00 99 1012.0
20260831001156 66 122 0.0 0.0 0.00 0.00 0.00 99 1012.0
20260831000656 66 148 0.0 0.0 0.00 0.00 0.00 99 1012.0
20260831000156 66 139 0.0 0.0 0.00 0.00 0.00 99 1012.0
20260830235656 66 85 0.0 0.0 0.00 0.00 0.00 99 1012.0
20260830235156 67 107 0.0 0.0 0.00 0.00 0.00 99 1012.0
20260830234656 67 19 0.0 0.0 0.00 0.00 0.00 99 1012.0
20260830234156 67 52 0.0 0.0 0.00 0.00 0.00 99 1012.0
20260830233656 67 147 0.0 0.0 0.00 0.00 0.00 99 1012.0
20260830233156 67 135 0.0 0.0 0.00 0.00 0.00 99 1012.0
20260830232656 67 183 0.0 0.0 0.00 0.00 0.00 99 1012.0
20260830232156 67 128 0.0 0.0 0.00 0.00 0.00 99 1012.0
20260830231656 68 139 0.0 0.0 0.00 0.00 0.00 99 1012.0
20260830231156 68 159 0.0 0.9 0.00 0.00 0.00 99 1012.0
20260830230656 68 11 0.0 0.9 0.00 0.00 0.00 99 1012.0
20260830230156 68 152 0.0 1.7 0.00 0.00 0.00 99 1012.0
20260830225656 69 107 0.0 1.7 0.00 0.00 0.00 99 1012.0
20260830225156 69 164 0.0 1.7 0.00 0.00 0.00 99 1012.0
20260830224656 69 131 0.0 2.6 0.00 0.00 0.00 99 1012.0
20260830224156 70 86 0.0 4.3 0.00 0.00 0.00 99 1012.0
20260830223156 70 99 1.7 4.3 0.00 0.00 0.00 99 1012.0
20260830222656 71 62 0.0 1.7 0.00 0.00 0.00 99 1012.0
20260830222156 71 57 0.0 0.9 0.00 0.00 0.00 99 1012.0
20260830221656 72 115 0.0 0.0 0.00 0.00 0.00 99 1012.0
20260830221156 72 108 0.0 0.0 0.00 0.00 0.00 99 1012.0
20260830220656 72 135 0.0 0.0 0.00 0.00 0.00 99 1012.0
20260830220156 73 135 0.0 0.0 0.00 0.00 0.00 99 1012.0
20260830215656 73 123 0.0 0.0 0.00 0.00 0.00 99 1011.2
20260830215156 73 137 0.0 0.0 0.00 0.00 0.00 99 1011.2
20260830214656 73 104 0.0 0.0 0.00 0.00 0.00 99 1011.2
20260830214156 73 39 0.0 0.0 0.00 0.00 0.00 99 1011.2
20260830213656 74 10 0.0 0.0 0.00 0.00 0.00 99 1012.0
20260830213156 74 126 0.0 0.0 0.00 0.00 0.00 99 1011.2
20260830212656 74 146 0.0 0.0 0.00 0.00 0.00 99 1011.2
20260830212156 74 157 0.0 0.0 0.00 0.00 0.00 99 1011.2
20260830211656 74 137 0.0 0.0 0.00 0.00 0.00 99 1012.0
20260830211156 74 171 0.0 0.0 0.00 0.00 0.00 99 1011.2
20260830210656 74 177 0.0 0.0 0.00 0.00 0.00 99 1012.0
20260830210156 74 184 0.0 0.0 0.00 0.00 0.00 99 1011.2
20260830205656 74 202 0.0 0.0 0.00 0.00 0.00 99 1012.0
20260830205156 75 180 0.0 0.0 0.00 0.00 0.00 99 1011.2
20260830204656 75 180 0.0 0.0 0.00 0.00 0.00 99 1011.2
20260830204156 76 189 0.0 0.0 0.00 0.00 0.00 99 1011.2
20260830203656 76 228 0.0 0.0 0.00 0.00 0.00 99 1011.2
20260830203156 77 231 0.0 0.0 0.00 0.00 0.00 99 1011.2
20260830202656 77 256 0.0 0.0 0.00 0.00 0.00 99 1011.2
20260830202156 77 225 0.0 0.0 0.00 0.00 0.00 99 1011.2
20260830201656 77 225 0.0 0.0 0.00 0.00 0.00 99 1012.0
20260830201156 77 235 0.0 0.0 0.00 0.00 0.00 99 1012.0
20260830200656 78 243 0.0 0.0 0.00 0.00 0.00 99 1012.0
20260830200156 78 262 0.0 0.0 0.00 0.00 0.00 99 1012.0
20260830195656 79 264 0.0 0.0 0.00 0.00 0.00 99 1012.0
20260830195156 79 186 0.0 0.0 0.00 0.00 0.00 99 1012.0
20260830194656 79 249 0.0 0.0 0.00 0.00 0.00 99 1012.0
20260830194156 80 305 0.0 0.0 0.00 0.00 0.00 99 1012.0
20260830193656 80 280 0.0 0.0 0.00 0.00 0.00 99 1012.0
20260830193156 80 304 0.0 0.0 0.00 0.00 0.00 99 1012.0
20260830192656 80 286 0.0 0.0 0.00 0.00 0.00 99 1012.0
20260830192156 80 291 0.0 0.0 0.00 0.00 0.00 99 1012.0
20260830191656 82 295 0.0 0.0 0.00 0.00 0.00 99 1012.0
20260830191156 83 265 0.0 0.0 0.00 0.00 0.00 99 1012.0
20260830190656 83 264 0.0 0.9 0.00 0.00 0.00 99 1012.0
20260830190156 84 230 0.0 0.9 0.00 0.00 0.00 99 1012.0
20260830185656 83 263 0.0 0.9 0.00 0.00 0.00 99 1012.0
20260830185156 83 287 0.0 0.0 0.00 0.00 0.00 99 1012.0
20260830184656 83 263 0.0 1.7 0.00 0.00 0.00 99 1012.0
20260830184156 83 190 0.0 2.6 0.00 0.00 0.00 99 1012.0
20260830183656 83 243 0.0 2.6 0.00 0.00 0.00 99 1012.1
20260830183156 82 226 0.0 0.0 0.00 0.00 0.00 99 1012.2
20260830182656 82 261 0.0 0.0 0.00 0.00 0.00 99 1012.2
20260830182156 83 237 0.0 0.0 0.00 0.00 0.00 99 1012.2
20260830181656 84 163 0.0 2.6 0.00 0.00 0.00 99 1013.0
20260830181156 85 137 0.9 2.6 0.00 0.00 0.00 99 1012.2
20260830180656 85 253 0.0 0.0 0.00 0.00 0.00 99 1012.2
20260830180156 85 252 0.0 0.0 0.00 0.00 0.00 99 1012.2
20260830175656 85 207 0.0 0.0 0.00 0.00 0.00 99 1012.2
20260830175156 86 267 0.0 0.9 0.00 0.00 0.00 99 1012.2
20260830174656 87 300 0.0 0.9 0.00 0.00 0.00 99 1013.0
20260830174156 88 275 0.0 2.6 0.00 0.00 0.00 99 1012.2
20260830173656 89 260 0.0 2.6 0.00 0.00 0.00 99 1012.2
20260830173156 89 283 0.0 1.7 0.00 0.00 0.00 99 1013.0
20260830172656 89 258 0.0 0.0 0.00 0.00 0.00 99 1013.0
20260830172156 89 259 0.0 0.0 0.00 0.00 0.00 99 1013.0
20260830171656 90 257 0.0 0.0 0.00 0.00 0.00 99 1012.2
20260830171156 89 230 0.0 0.0 0.00 0.00 0.00 99 1012.2
20260830170656 88 268 0.0 0.0 0.00 0.00 0.00 99 1013.0
20260830170156 85 272 0.0 0.0 0.00 0.00 0.00 99 1012.2
20260830165656 84 280 0.0 0.0 0.00 0.00 0.00 99 1013.0
20260830165156 83 235 0.0 0.0 0.00 0.00 0.00 99 1012.2
20260830164656 83 266 0.0 0.0 0.00 0.00 0.00 99 1013.0
20260830164156 81 180 0.0 0.0 0.00 0.00 0.00 99 1013.0
20260830163656 80 285 0.0 0.0 0.00 0.00 0.00 99 1012.2
20260830163156 80 274 0.0 0.0 0.00 0.00 0.00 99 1013.0
20260830162656 79 230 0.0 0.0 0.00 0.00 0.00 99 1013.0
20260830162156 79 274 0.0 0.0 0.00 0.00 0.00 99 1013.0
20260830161656 79 268 0.0 0.0 0.00 0.00 0.00 99 1013.0
20260830161156 80 267 0.0 0.0 0.00 0.00 0.00 99 1013.0
20260830160656 80 258 0.0 0.0 0.00 0.00 0.00 99 1013.0
20260830160156 80 162 0.0 0.0 0.00 0.00 0.00 99 1013.0
20260830155656 80 167 0.0 0.0 0.00 0.00 0.00 99 1013.0
20260830155156 79 189 0.0 0.0 0.00 0.00 0.00 99 1013.0
20260830154655 78 192 0.0 0.0 0.00 0.00 0.00 99 1013.0
20260830154156 77 258 0.0 0.0 0.00 0.00 0.00 99 1013.1
20260830153655 77 327 0.0 0.0 0.00 0.00 0.00 99 1013.2
20260830153155 77 148 0.0 0.0 0.00 0.00 0.00 99 1013.2
20260830152655 77 271 0.0 0.0 0.00 0.00 0.00 99 1013.2
20260830152155 77 167 0.0 0.0 0.00 0.00 0.00 99 1013.2
20260830151656 77 159 0.0 0.0 0.00 0.00 0.00 99 1013.2
20260830151155 77 291 0.0 0.0 0.00 0.00 0.00 99 1014.0
20260830150655 77 309 0.0 0.0 0.00 0.00 0.00 99 1013.2
20260830150155 77 272 0.0 0.0 0.00 0.00 0.00 99 1013.2
20260830145655 77 279 0.0 0.0 0.00 0.00 0.00 99 1014.0
20260830145155 78 266 0.0 0.0 0.00 0.00 0.00 99 1014.0
20260830144655 79 245 0.0 0.0 0.00 0.00 0.00 99 1014.0
20260830144155 80 266 0.0 0.0 0.00 0.00 0.00 99 1013.2
20260830143655 82 266 0.0 0.0 0.00 0.00 0.00 99 1014.0
20260830143155 82 250 0.0 0.0 0.00 0.00 0.00 99 1014.0
20260830142655 80 282 0.0 0.0 0.00 0.00 0.00 99 1013.2
20260830142155 78 244 0.0 0.0 0.00 0.00 0.00 99 1013.2
20260830141656 77 253 0.0 0.0 0.00 0.00 0.00 99 1013.2
20260830141155 75 279 0.0 0.0 0.00 0.00 0.00 99 1014.0
20260830140655 75 216 0.0 0.0 0.00 0.00 0.00 99 1014.0
20260830140155 75 287 0.0 0.0 0.00 0.00 0.00 99 1014.0
20260830135655 76 268 0.0 0.0 0.00 0.00 0.00 99 1014.0
20260830135155 76 259 0.0 0.0 0.00 0.00 0.00 99 1014.0
20260830134655 76 262 0.0 0.0 0.00 0.00 0.00 99 1013.2
20260830134155 75 268 0.0 0.0 0.00 0.00 0.00 99 1014.0
20260830133655 73 270 0.0 0.0 0.00 0.00 0.00 99 1014.0
20260830133155 70 251 0.0 0.0 0.00 0.00 0.00 99 1014.0
20260830132655 69 110 0.0 0.0 0.00 0.00 0.00 99 1014.0
20260830132155 68 227 0.0 0.0 0.00 0.00 0.00 99 1014.0
20260830131655 68 260 0.0 0.0 0.00 0.00 0.00 99 1014.0
20260830131155 67 273 0.0 0.0 0.00 0.00 0.00 99 1014.0
20260830130655 67 265 0.0 0.0 0.00 0.00 0.00 99 1014.0
20260830130155 67 268 0.0 0.0 0.00 0.00 0.00 99 1014.0
20260830125655 67 301 0.0 0.0 0.00 0.00 0.00 99 1014.0
20260830125155 66 118 0.0 0.0 0.00 0.00 0.00 99 1014.0
20260830124655 64 305 0.0 0.0 0.00 0.00 0.00 99 1014.0
20260830124155 62 295 0.0 0.0 0.00 0.00 0.00 99 1014.0
20260830123655 60 286 0.0 0.0 0.00 0.00 0.00 99 1014.0
20260830123155 60 148 0.0 0.0 0.00 0.00 0.00 99 1014.0
20260830122655 59 292 0.0 0.0 0.00 0.00 0.00 99 1014.0
20260830122155 59 186 0.0 0.0 0.00 0.00 0.00 99 1014.0
20260830121655 59 173 0.0 0.0 0.00 0.00 0.00 99 1014.0
20260830121155 58 135 0.0 0.0 0.00 0.00 0.00 99 1014.0
20260830120655 58 253 0.0 0.0 0.00 0.00 0.00 99 1014.0
20260830120155 58 264 0.0 0.0 0.00 0.00 0.00 99 1014.0
20260830115655 57 276 0.0 0.0 0.00 0.00 0.00 99 1014.0
20260830115155 57 141 0.0 0.0 0.00 0.00 0.00 99 1014.0
20260830114655 57 255 0.0 0.0 0.00 0.00 0.00 99 1014.0
20260830114155 57 223 0.0 0.0 0.00 0.00 0.00 99 1014.0
20260830113655 57 291 0.0 0.0 0.00 0.00 0.00 99 1014.0
20260830113155 57 125 0.0 0.0 0.00 0.00 0.00 99 1014.0
20260830112655 57 107 0.0 0.0 0.00 0.00 0.00 99 1014.1
20260830112155 56 278 0.0 0.0 0.00 0.00 0.00 99 1014.0
20260830111655 56 287 0.0 0.0 0.00 0.00 0.00 99 1014.0
20260830111155 56 140 0.0 0.0 0.00 0.00 0.00 99 1014.0
20260830110655 55 162 0.0 0.0 0.00 0.00 0.00 99 1014.0
20260830110155 55 246 0.0 0.0 0.00 0.00 0.00 99 1014.1
20260830105655 55 232 0.0 0.0 0.00 0.00 0.00 99 1014.0
20260830105155 55 177 0.0 0.0 0.00 0.00 0.00 99 1014.0
20260830104655 55 171 0.0 0.0 0.00 0.00 0.00 99 1014.0
20260830104155 55 141 0.0 0.0 0.00 0.00 0.00 99 1014.0
20260830103655 55 132 0.0 0.0 0.00 0.00 0.00 99 1014.0
20260830103155 55 36 0.0 0.0 0.00 0.00 0.00 99 1014.0
20260830102655 55 177 0.0 0.0 0.00 0.00 0.00 99 1014.0
20260830102155 55 223 0.0 0.0 0.00 0.00 0.00 99 1014.0
20260830101655 55 27 0.0 0.0 0.00 0.00 0.00 99 1014.0
20260830101155 55 138 0.0 0.0 0.00 0.00 0.00 99 1014.0
20260830100655 55 141 0.0 0.0 0.00 0.00 0.00 99 1014.0
20260830100155 55 133 0.0 0.0 0.00 0.00 0.00 99 1014.0
20260830095655 55 159 0.0 0.0 0.00 0.00 0.00 99 1014.0
20260830095155 55 285 0.0 0.0 0.00 0.00 0.00 99 1014.0
20260830094655 55 175 0.0 0.0 0.00 0.00 0.00 99 1014.0
20260830094155 55 98 0.0 0.0 0.00 0.00 0.00 99 1014.0
20260830093655 55 253 0.0 0.0 0.00 0.00 0.00 99 1014.0
20260830093155 55 275 0.0 0.0 0.00 0.00 0.00 99 1014.0
20260830092655 55 129 0.0 0.0 0.00 0.00 0.00 99 1014.0
20260830092155 55 110 0.0 0.0 0.00 0.00 0.00 99 1014.0
20260830091655 55 103 0.0 0.0 0.00 0.00 0.00 99 1014.0
20260830091155 55 204 0.0 0.0 0.00 0.00 0.00 99 1014.0
20260830090655 55 108 0.0 0.0 0.00 0.00 0.00 99 1014.0
20260830090155 55 173 0.0 0.0 0.00 0.00 0.00 99 1014.0
20260830085655 55 211 0.0 0.0 0.00 0.00 0.00 99 1014.0